Change the Weather History Date:

Wednesday, August 7, 2013

  Actual Average Record
Temperature  
Mean Temperature 85 °F 80 °F  
Max Temperature 97 °F 93 °F 105 °F (1994)
Min Temperature 73 °F 67 °F 58 °F (1971)
Degree Days  
Heating Degree Days 0 0  
Month to date heating degree days 0 0  
Since 1 June heating degree days 0 1  
Since 1 July heating degree days 0 0  
Cooling Degree Days 20 15  
Month to date cooling degree days 144 105  
Year to date cooling degree days 1484 1203  
Since 1 June cooling degree days 1161 978  
Growing Degree Days 35 (Base 50)    
Moisture  
Dew Point 51 °F    
Average Humidity 32    
Maximum Humidity 46    
Minimum Humidity 18    
Precipitation  
Precipitation 0.00 in 0.06 in 1.04 in (1898)
Month to date precipitation T 0.46  
Year to date precipitation 3.84 7.42  
Sea Level Pressure  
Sea Level Pressure 29.74 in    
Wind  
Wind Speed 9 mph (WSW)    
Max Wind Speed 23 mph    
Max Gust Speed 29 mph    
Visibility 10 miles    
Events      
T = Trace of Precipitation, MM = Missing Value Source: NWS Daily Summary

Daily Weather History Graph

Daily Weather History Graph

Search for Another Location

Airport or City:

Trip Planner

Search our weather history database for the weather conditions in past years. The results will help you decide how hot, cold, wet, or windy it might be!

Date:

Astronomy

Aug. 07, 2013 Rise Set
Actual Time 6:15 AM MDT 7:51 PM MDT
Civil Twilight 5:48 AM MDT 8:18 PM MDT
Nautical Twilight 5:16 AM MDT 8:50 PM MDT
Astronomical Twilight 4:42 AM MDT 9:24 PM MDT
Moon 7:00 AM MDT (8/7) 8:07 PM MDT (8/7)
Length of Visible Light 14h 29m
Length of Day
13h 36m
New Moon, 1% of the Moon is Illuminated
Aug 7
New Moon
Aug 14
First Quarter
Aug 20
Full
Aug 28
Last Quarter
Sep 5
New

Hourly Weather History & Observations

Time (MDT) Temp. Heat Index Dew Point Humidity Pressure Visibility Wind Dir Wind Speed Gust Speed Precip Events Conditions
12:51 AM 78.1 °F - 53.1 °F 42% 29.76 in 10.0 mi SSW 3.5 mph - N/A   Clear
1:51 AM 79.0 °F - 53.1 °F 40% 29.75 in 10.0 mi Calm Calm - N/A   Clear
2:51 AM 79.0 °F - 53.1 °F 40% 29.74 in 10.0 mi West 5.8 mph - N/A   Clear
3:51 AM 79.0 °F - 52.0 °F 39% 29.73 in 10.0 mi WNW 4.6 mph - N/A   Clear
4:51 AM 77.0 °F - 52.0 °F 42% 29.74 in 10.0 mi WNW 4.6 mph - N/A   Clear
5:51 AM 75.0 °F - 52.0 °F 44% 29.77 in 10.0 mi WNW 3.5 mph - N/A   Clear
6:51 AM 75.0 °F - 53.1 °F 46% 29.79 in 10.0 mi NW 5.8 mph - N/A   Clear
7:51 AM 80.1 °F 79.9 °F 53.1 °F 39% 29.80 in 10.0 mi WNW 6.9 mph - N/A   Clear
8:51 AM 82.9 °F 81.8 °F 53.1 °F 36% 29.81 in 10.0 mi NW 11.5 mph - N/A   Clear
9:51 AM 87.1 °F 85.1 °F 54.0 °F 32% 29.80 in 10.0 mi NNW 9.2 mph - N/A   Clear
10:51 AM 90.0 °F 87.5 °F 53.1 °F 28% 29.79 in 10.0 mi West 4.6 mph - N/A   Clear
11:51 AM 91.9 °F 89.5 °F 53.1 °F 27% 29.77 in 10.0 mi Variable 4.6 mph - N/A   Clear
12:51 PM 95.0 °F - 51.1 °F 22% 29.76 in 10.0 mi Variable 5.8 mph - N/A   Clear
1:51 PM 95.0 °F - 51.1 °F 22% 29.75 in 10.0 mi SW 10.4 mph 18.4 mph N/A   Clear
2:51 PM 93.0 °F - 52.0 °F 25% 29.74 in 10.0 mi South 15.0 mph - N/A   Partly Cloudy
3:51 PM 96.1 °F - 48.0 °F 19% 29.70 in 10.0 mi South 10.4 mph 21.9 mph N/A   Clear
4:51 PM 96.1 °F - 46.9 °F 19% 29.68 in 10.0 mi South 15.0 mph 21.9 mph N/A   Clear
5:51 PM 95.0 °F - 46.9 °F 19% 29.67 in 10.0 mi South 12.7 mph 23.0 mph N/A   Clear
6:51 PM 93.0 °F - 48.9 °F 22% 29.67 in 10.0 mi South 19.6 mph 28.8 mph N/A   Clear
7:51 PM 89.1 °F - 50.0 °F 26% 29.69 in 10.0 mi South 15.0 mph - N/A   Clear
8:51 PM 87.1 °F - 51.1 °F 29% 29.70 in 10.0 mi South 17.3 mph - N/A   Mostly Cloudy
9:51 PM 84.9 °F - 52.0 °F 32% 29.75 in 10.0 mi NNW 10.4 mph - N/A   Mostly Cloudy
10:51 PM 82.0 °F - 48.9 °F 31% 29.75 in 10.0 mi WNW 3.5 mph - N/A   Clear
11:51 PM 79.0 °F - 50.0 °F 36% 29.75 in 10.0 mi West 3.5 mph - N/A   Clear